Location: Vigo di Fassa
(46.4167°N, 11.6667°E)
Time: 14:18:23
(UTC+00:00)

SME Rocket - Pass Details

Date: 03 March 2021
Orbit: 550 x 2652 km, 99.9° (Epoch: 17 April)

Event Time Altitude Azimuth Distance (km) Brightness Sun altitude
Rises 19:06:29 0° 15° (NNE) 5,031 7.7 -22.0°
Reaches altitude 10° 19:10:01 10° 16° (NNE) 3,721 7.0 -22.6°
Maximum altitude 19:18:22 88° 106° (ESE) 1,083 4.1 -24.0°
Drops below altitude 10° 19:23:41 10° 197° (SSW) 2,418 6.1 -24.9°
Sets 19:25:35 0° 197° (SSW) 3,184 6.7 -25.2°
